STARLINK-30350, 57746

Orbit data source: Space-Track

STARLINK-30350, 57746 is a payload satellite owned by SpaceX/Seattle (US) in LEO that was launched on Fri, 01 Sep 2023 UTC via an FALCON 9 launch vehicle from the Air Force Eastern Test Range (AFETR). Payload-class satellites include a variety of spacecraft equipped with specific instruments for various scientific and technological missions. These include communications satellites like Starlink; space stations such as the ISS; scientific satellites like the Hubble; Earth observation satellites from companies like Planet Labs, Umbra, and HawkEye 360; GPS; miniature CubeSats for education and research; and military/defense satellites.

Loading next visibility...
Identifier
57746, 2023-131Q
Orbit
LEO
Country
Flag of USUS
Related business
Manufacturer
SpaceX/Seattle
Mission
Operational Commercial Communications
Bus & Motor
STARLINK V2M, Unknown motor
Mass
730 kg wet, ~700 kg dry
Launch date (UTC)
2023-09-01 (3 years ago)
Launch vehicle
FALCON 9
Launch site
Air Force Eastern Test Range (AFETR)
Object type
Payload
Rocket body
Debris
Shape & HBR
Box + 2 Pan, 17.7 m
Radar Cross Section
33.884 m², Large (>1 m²)

Expand to show TLE details & history
Last TLE update: 2 days ago

TLE from 2 days ago
0 STARLINK-30350
1 57746U 23131Q   26171.46067338  .00000197  00000-0  16676-4 0  9990
2 57746  43.0009 308.6660 0001104 242.8448 117.2291 15.27574086155676
Epoch: 2026-06-20T11:03Z
TLE epoch observation values (Epoch: 2026-06-20T11:03:22.180Z)
Latitude
-0.00001°
Longitude
-125.8514°
Altitude
483.189 km
Speed
7.625 km/s
True Right ascension
20h 34m 39s
True Declination
0° 00' 00"
Sunlit
Object was in full shadow at epoch
Visualization orbit readout
Latitude
Unknown
Longitude
Unknown
Altitude
Unknown
Speed
Unknown
Apparent Right ascension
Unknown
Apparent Declination
Unknown
Sunlit
N/A
Visualization observer readout
Local Sidereal Time
21:23:56
Azimuth
Unknown
Elevation
Unknown
Doppler factor
Unknown
Orbital elements
Apogee altitude
485.77 km
Perigee altitude
484.254 km
Semi-major axis
6,863.149 km
Eccentricity
0.00011
Inclination
43.0009°
RAAN
308.666°
Arg. of periapsis
242.8448°
True anomaly
117.24035°
Mean anomaly
117.2291°
Eccentric anomaly
117.23472°
Mean motion
3.81732 °/min
Orbital period
94.31 mins
BSTAR
0.000016676
Loading maneuver chart data...
Computing Atmospheric mass density...
Loading historical data...
Loading historical data...
Loading historical data...
Loading historical data...
Loading historical data...
Loading historical data...
Loading historical data...

Documentation

Showing up to 5 results
|